[[{"header":{"parameterUnit":"m.s-1","parameterCategory":1,"la1":30.2991,"la2":30.254,"lo1":-89.0895,"lo2":-89.0444,"dy":0.0017,"dx":0.0017,"nx":28,"ny":28,"refTime":"2025-04-11T21:00:00:Z","depth":0,"parameterNumber":2,"parameterNumberName":"U-component_of_WINDS"},"data":[0,0,0,0,0,0,0,0,0,0,0,0,0,0,0,0,0,0,0,0,0,0,0,0,0,0,0,0,0,0,0,0,0,0,0,0,0,0,0,0,0,0,0,0,0,0,0,0,0,0,0,0,0,0,0,0,0,0,-0.6038,-0.6038,0,-0.6047,-0.6047,-0.6047,-0.6031,-0.603,-0.603,-0.6029,-0.604,-0.6041,-0.6042,0,0,0,0,0,0,0,0,0,0,0,0,0,-0.6007,-0.6008,-0.6038,-0.6038,-0.6038,-0.6047,-0.6047,-0.6047,-0.6031,-0.603,-0.603,-0.6029,-0.604,-0.6041,-0.6042,0,0,0,0,0,0,0,0,0,0,0,0,0,-0.6019,-0.6008,-0.6038,-0.6031,-0.6031,-0.6047,-0.6047,-0.6047,-0.6031,-0.603,-0.6029,-0.6029,-0.604,-0.6041,-0.6042,-0.6066,0,0,-0.6046,-0.6046,0,0,0,0,0,0,0,0,-0.6018,-0.602,-0.6032,-0.6032,-0.6031,-0.6037,-0.604,-0.6053,-0.6031,-0.6031,-0.6029,-0.6028,-0.604,-0.6041,-0.6044,-0.6066,-0.6067,-0.6046,-0.6046,-0.6047,-0.6047,0,0,0,0,0,0,0,-0.6018,-0.602,-0.6041,-0.6032,-0.6032,-0.6028,-0.6029,-0.6043,-0.604,-0.6031,-0.603,-0.6031,-0.6039,-0.6043,-0.6045,-0.6067,-0.6046,-0.6047,-0.6047,-0.6048,-0.6108,-0.6109,0,0,0,0,0,0,-0.6017,-0.6019,-0.6041,-0.6042,-0.6022,-0.6029,-0.603,-0.6036,-0.604,-0.6039,-0.6032,-0.603,-0.6042,-0.6043,-0.6045,-0.6073,-0.6047,-0.6048,-0.6049,-0.6107,-0.6108,-0.6109,0,0,0,0,0,0,-0.6017,-0.602,-0.6041,-0.603,-0.6032,-0.603,-0.6037,-0.6036,-0.604,-0.604,-0.604,-0.6036,-0.6041,-0.6043,-0.6061,-0.6073,-0.6049,-0.605,-0.6106,-0.6108,-0.6109,-0.613,0,0,0,0,0,0,-0.6016,-0.6019,-0.6028,-0.603,-0.6033,-0.6056,-0.6038,-0.6037,-0.6042,-0.604,-0.6044,-0.6044,-0.6041,-0.6059,-0.6062,-0.6075,-0.6051,-0.6105,-0.6107,-0.6109,-0.6128,-0.6132,-0.6135,0,0,0,0,0,-0.6015,-0.6034,-0.6029,-0.6032,-0.6044,-0.6057,-0.6058,-0.6054,-0.6043,-0.6053,-0.6052,-0.6044,-0.6071,-0.6061,-0.6064,-0.6077,-0.6104,-0.6106,-0.6108,-0.6127,-0.6131,-0.6135,0,0,0,0,0,0,-0.6035,-0.6035,-0.6029,-0.6049,-0.6053,-0.6054,-0.6066,-0.6058,-0.6066,-0.6064,-0.6058,-0.6059,-0.6077,-0.6079,-0.6067,-0.61,-0.6086,-0.6089,-0.6099,-0.6103,-0.6107,-0.6107,-0.6052,0,0,0,0,0,-0.6041,-0.6051,-0.6051,-0.6069,-0.6071,-0.6068,-0.6073,-0.6069,-0.6073,-0.6075,-0.6076,-0.608,-0.609,-0.6096,-0.6105,-0.6128,-0.6129,-0.6138,-0.6142,-0.6145,-0.6148,-0.616,-0.6164,-0.6116,-0.6116,-0.6116,0,0,-0.6056,-0.6057,-0.6064,-0.6073,-0.6075,-0.6086,-0.607,-0.6082,-0.609,-0.6077,-0.6093,-0.6094,-0.6099,-0.6119,-0.6128,-0.6121,-0.6161,-0.6147,-0.615,-0.6151,-0.6162,-0.6167,-0.6171,-0.6117,-0.6117,-0.6117,0,0,-0.6087,-0.6089,-0.6104,-0.6106,-0.611,-0.6108,-0.6111,-0.6113,-0.6113,-0.6129,-0.6119,-0.6129,-0.6145,-0.6149,-0.6153,-0.6185,-0.6178,-0.6187,-0.6206,-0.6218,-0.6222,-0.6225,-0.6237,-0.6241,-0.619,-0.619,-0.619,0,-0.6105,-0.612,-0.6113,-0.6126,-0.613,-0.6118,-0.6133,-0.6136,-0.6143,-0.6146,-0.6138,-0.6158,-0.616,-0.6181,-0.6189,-0.6192,-0.6196,-0.6188,-0.6222,-0.6225,-0.6228,-0.6239,-0.6244,-0.6191,-0.6191,-0.6191,-0.6191,0,-0.6141,-0.6152,-0.6164,-0.617,-0.6176,-0.619,-0.6185,-0.6192,-0.6186,-0.6185,-0.6201,-0.6203,-0.6212,-0.6216,-0.6212,-0.6236,-0.6232,-0.6223,-0.6209,-0.6234,-0.6245,-0.6249,-0.6193,-0.6193,-0.6192,-0.6192,0,0,-0.6188,-0.6188,-0.6193,-0.6195,-0.6198,-0.6206,-0.6219,-0.6227,-0.6233,-0.6238,-0.6249,-0.6263,-0.6254,-0.6259,-0.6254,-0.6264,-0.6289,-0.6254,-0.6254,-0.6261,-0.6317,-0.6325,-0.633,-0.6284,-0.6285,-0.6285,-0.6317,0,-0.6219,-0.6242,-0.6235,-0.6258,-0.6268,-0.6256,-0.6267,-0.627,-0.6269,-0.6277,-0.6276,-0.6286,-0.6273,-0.6276,-0.6285,-0.6284,-0.6301,-0.6282,-0.6295,-0.6296,-0.6296,-0.6335,-0.6344,-0.6374,-0.6321,-0.6322,-0.6322,0,-0.626,-0.6265,-0.6289,-0.6289,-0.6293,-0.6304,-0.631,-0.6318,-0.6321,-0.6319,-0.6324,-0.6317,-0.633,-0.6314,-0.6333,-0.632,-0.6325,-0.6325,-0.6326,-0.6328,-0.6312,-0.634,-0.6383,-0.6388,-0.6329,-0.6328,-0.6328,0,-0.6292,-0.6305,-0.6321,-0.6323,-0.6324,-0.6332,-0.6332,-0.6334,-0.6339,-0.6345,-0.6348,-0.6355,-0.6359,-0.6365,-0.636,-0.6349,-0.638,-0.6364,-0.6379,-0.6379,-0.6387,-0.6387,-0.6433,-0.6389,-0.6388,-0.6388,-0.6388,0,-0.6329,-0.6344,-0.6335,-0.6345,-0.6362,-0.6354,-0.637,-0.637,-0.6371,-0.6381,-0.637,-0.638,-0.6372,-0.6381,-0.6377,-0.6393,-0.6395,-0.6394,-0.6393,-0.6396,-0.6396,-0.64,-0.6398,-0.639,-0.6389,-0.6389,-0.6389,0,-0.6369,-0.6363,-0.638,-0.6378,-0.6378,-0.6391,-0.639,-0.6399,-0.6396,-0.6408,-0.6411,-0.6406,-0.6416,-0.6411,-0.6422,-0.6419,-0.644,-0.6435,-0.6439,-0.6438,-0.6454,-0.6453,-0.6506,-0.6512,-0.6462,-0.6463,-0.6463,0,-0.6393,-0.6405,-0.6404,-0.6409,-0.6411,-0.642,-0.6424,-0.6416,-0.6422,-0.6425,-0.6434,-0.6442,-0.6449,-0.6465,-0.6463,-0.6471,-0.6467,-0.6485,-0.6469,-0.6471,-0.6469,-0.6469,-0.647,-0.6489,-0.649,-0.649,-0.649,0,-0.6438,-0.6434,-0.6441,-0.6447,-0.6453,-0.6457,-0.6461,-0.6466,-0.6458,-0.6464,-0.6474,-0.6479,-0.6489,-0.6498,-0.6504,-0.6505,-0.6497,-0.6495,-0.6499,-0.6503,-0.6505,-0.6505,-0.6449,-0.6495,-0.6494,-0.6494,-0.6494,-0.6493,-0.6471,-0.6481,-0.6482,-0.649,-0.6491,-0.6495,-0.6503,-0.6501,-0.6508,-0.6515,-0.651,-0.6521,-0.6523,-0.6531,-0.6532,-0.6541,-0.6534,-0.654,-0.6542,-0.6544,-0.6546,-0.6502,-0.6542,-0.6542,-0.6542,-0.6542,-0.6542,0,-0.6516,-0.6516,-0.6523,-0.6528,-0.6534,-0.6524,-0.6528,-0.6534,-0.6543,-0.6546,-0.6552,-0.6562,-0.6571,-0.6569,-0.6576,-0.6584,-0.658,-0.6586,-0.6586,-0.6586,-0.6552,-0.6548,-0.6589,-0.6589,-0.6589,-0.6589,-0.6589,-0.6589,-0.654,-0.6556,-0.6552,-0.6568,-0.6568,-0.6578,-0.6581,-0.6584,-0.6585,-0.6598,-0.6604,-0.6602,-0.6603,-0.661,-0.6617,-0.6616,-0.662,-0.6628,-0.6626,-0.6593,-0.6589,-0.6585,-0.6581,-0.6628,-0.6628,-0.666,-0.666,-0.666]},{"header":{"parameterUnit":"m.s-1","parameterCategory":1,"la1":30.2991,"la2":30.254,"lo1":-89.0895,"lo2":-89.0444,"dy":0.0017,"dx":0.0017,"nx":28,"ny":28,"refTime":"2025-04-11T21:00:00:Z","depth":0,"parameterNumber":3,"parameterNumberName":"V-component_of_WINDS"},"data":[0,0,0,0,0,0,0,0,0,0,0,0,0,0,0,0,0,0,0,0,0,0,0,0,0,0,0,0,0,0,0,0,0,0,0,0,0,0,0,0,0,0,0,0,0,0,0,0,0,0,0,0,0,0,0,0,0,0,-3.5339,-3.5339,0,-3.5373,-3.5373,-3.5373,-3.5344,-3.5343,-3.5342,-3.5341,-3.5372,-3.5374,-3.5376,0,0,0,0,0,0,0,0,0,0,0,0,0,-3.5248,-3.525,-3.5339,-3.5339,-3.534,-3.5373,-3.5373,-3.5373,-3.5344,-3.5343,-3.5342,-3.534,-3.5371,-3.5374,-3.5376,0,0,0,0,0,0,0,0,0,0,0,0,0,-3.5285,-3.525,-3.5339,-3.5329,-3.5329,-3.5372,-3.5373,-3.5374,-3.5345,-3.5343,-3.5341,-3.5339,-3.5371,-3.5374,-3.5376,-3.543,0,0,-3.5385,-3.5387,0,0,0,0,0,0,0,0,-3.5283,-3.5288,-3.533,-3.533,-3.533,-3.5352,-3.5352,-3.5392,-3.5345,-3.5339,-3.5341,-3.5339,-3.5367,-3.537,-3.538,-3.5432,-3.5433,-3.5386,-3.5387,-3.5389,-3.5389,0,0,0,0,0,0,0,-3.528,-3.5287,-3.5352,-3.5331,-3.5331,-3.5323,-3.5326,-3.536,-3.5362,-3.5339,-3.5337,-3.5342,-3.5366,-3.5377,-3.5381,-3.5433,-3.5386,-3.5388,-3.539,-3.5391,-3.5533,-3.5534,0,0,0,0,0,0,-3.5279,-3.5285,-3.5351,-3.5353,-3.5302,-3.5326,-3.533,-3.5347,-3.5362,-3.5362,-3.5343,-3.534,-3.5373,-3.5377,-3.5382,-3.5447,-3.5389,-3.5391,-3.5393,-3.5531,-3.5533,-3.5535,0,0,0,0,0,0,-3.5277,-3.5285,-3.535,-3.5319,-3.5326,-3.5329,-3.5349,-3.5348,-3.536,-3.5365,-3.5365,-3.5354,-3.5372,-3.5377,-3.5419,-3.5448,-3.5393,-3.5395,-3.5528,-3.5531,-3.5534,-3.5577,0,0,0,0,0,0,-3.5275,-3.5285,-3.5306,-3.5319,-3.5328,-3.5387,-3.5351,-3.535,-3.5365,-3.5361,-3.5375,-3.5376,-3.5371,-3.5415,-3.5422,-3.5451,-3.5398,-3.5526,-3.553,-3.5533,-3.5573,-3.5582,-3.5588,0,0,0,0,0,-3.5272,-3.5315,-3.5307,-3.5315,-3.5354,-3.5389,-3.5394,-3.5388,-3.5367,-3.5388,-3.5392,-3.5375,-3.5443,-3.5419,-3.5427,-3.5457,-3.5524,-3.5528,-3.5533,-3.557,-3.558,-3.5588,0,0,0,0,0,0,-3.5304,-3.5317,-3.5308,-3.5357,-3.5373,-3.5384,-3.541,-3.5399,-3.5419,-3.5415,-3.5406,-3.5409,-3.5454,-3.5459,-3.5432,-3.5511,-3.548,-3.5486,-3.5506,-3.5515,-3.5522,-3.5521,-3.54,0,0,0,0,0,-3.5317,-3.5345,-3.5354,-3.5397,-3.5406,-3.5407,-3.5422,-3.5416,-3.5431,-3.5437,-3.5443,-3.5458,-3.5483,-3.5499,-3.5522,-3.5574,-3.5577,-3.5598,-3.5606,-3.5612,-3.5618,-3.5647,-3.5657,-3.555,-3.555,-3.555,0,0,-3.5344,-3.5354,-3.5372,-3.5404,-3.5415,-3.5444,-3.5412,-3.5444,-3.5465,-3.5441,-3.5482,-3.5487,-3.5502,-3.555,-3.5571,-3.5556,-3.5648,-3.5618,-3.5623,-3.5625,-3.5653,-3.5663,-3.5672,-3.5553,-3.5553,-3.5552,0,0,-3.5408,-3.5418,-3.5456,-3.5469,-3.5486,-3.5487,-3.5496,-3.551,-3.5513,-3.5554,-3.5537,-3.5562,-3.5604,-3.5617,-3.5628,-3.5699,-3.5685,-3.5706,-3.5746,-3.5775,-3.5783,-3.5791,-3.5817,-3.5827,-3.5712,-3.5712,-3.5712,0,-3.5439,-3.5483,-3.5477,-3.5511,-3.5525,-3.5507,-3.5545,-3.5557,-3.5581,-3.5591,-3.5574,-3.5628,-3.5637,-3.5688,-3.5705,-3.5715,-3.5725,-3.5705,-3.5782,-3.579,-3.5797,-3.5822,-3.5832,-3.5714,-3.5714,-3.5714,-3.5714,0,-3.5521,-3.5551,-3.558,-3.5605,-3.5623,-3.5659,-3.5658,-3.5677,-3.567,-3.5672,-3.5714,-3.5725,-3.575,-3.5761,-3.5754,-3.5812,-3.5802,-3.5784,-3.5753,-3.581,-3.5833,-3.5843,-3.5718,-3.5717,-3.5717,-3.5716,0,0,-3.5606,-3.5629,-3.564,-3.5652,-3.5671,-3.5694,-3.5729,-3.5755,-3.5772,-3.5789,-3.5818,-3.5855,-3.5839,-3.5853,-3.5847,-3.5872,-3.5929,-3.585,-3.5851,-3.5866,-3.5995,-3.6009,-3.6021,-3.5919,-3.5921,-3.5923,-3.5994,0,-3.5672,-3.5735,-3.5731,-3.5789,-3.5818,-3.5801,-3.5832,-3.5847,-3.585,-3.5874,-3.5877,-3.5905,-3.588,-3.5889,-3.5913,-3.5917,-3.5955,-3.5911,-3.5947,-3.5948,-3.5945,-3.6033,-3.6048,-3.6115,-3.6003,-3.6004,-3.6005,0,-3.5758,-3.578,-3.5842,-3.5858,-3.587,-3.5898,-3.5922,-3.5946,-3.5962,-3.5963,-3.5979,-3.5969,-3.6004,-3.5972,-3.6021,-3.5992,-3.6006,-3.601,-3.6013,-3.6017,-3.5981,-3.604,-3.6136,-3.6146,-3.602,-3.6018,-3.6017,0,-3.5816,-3.5861,-3.5904,-3.5915,-3.5934,-3.5955,-3.5963,-3.5978,-3.5995,-3.6016,-3.6026,-3.6051,-3.6064,-3.6083,-3.608,-3.6057,-3.613,-3.6098,-3.6132,-3.6133,-3.6149,-3.6148,-3.625,-3.6156,-3.6156,-3.6156,-3.6156,0,-3.5891,-3.593,-3.5931,-3.5958,-3.6001,-3.5996,-3.6039,-3.6045,-3.6059,-3.6086,-3.6072,-3.6098,-3.6092,-3.6118,-3.6116,-3.6157,-3.6163,-3.6165,-3.6164,-3.6167,-3.6167,-3.6177,-3.6173,-3.6159,-3.6158,-3.6158,-3.6157,0,-3.5963,-3.5965,-3.6012,-3.6027,-3.6032,-3.6063,-3.6076,-3.6101,-3.6104,-3.6139,-3.6147,-3.6151,-3.6181,-3.618,-3.6213,-3.6211,-3.6263,-3.6256,-3.6258,-3.6257,-3.6292,-3.629,-3.6404,-3.642,-3.6315,-3.6316,-3.6317,0,-3.6011,-3.6041,-3.6061,-3.6079,-3.609,-3.6119,-3.6136,-3.6133,-3.6151,-3.6173,-3.6196,-3.6225,-3.6248,-3.6296,-3.6301,-3.6327,-3.6321,-3.636,-3.6325,-3.6327,-3.6323,-3.6322,-3.6326,-3.6367,-3.6368,-3.6369,-3.637,0,-3.6098,-3.6098,-3.6124,-3.6152,-3.6173,-3.6194,-3.6213,-3.6229,-3.6227,-3.6249,-3.628,-3.6298,-3.6333,-3.6362,-3.6387,-3.6395,-3.6383,-3.6381,-3.639,-3.6394,-3.6395,-3.6397,-3.6278,-3.6378,-3.6377,-3.6377,-3.6376,-3.6376,-3.6161,-3.6187,-3.6206,-3.6236,-3.625,-3.6269,-3.6294,-3.6301,-3.6327,-3.6356,-3.6352,-3.6387,-3.6404,-3.6436,-3.6447,-3.6474,-3.646,-3.6474,-3.6477,-3.6481,-3.6486,-3.639,-3.6478,-3.6478,-3.6478,-3.6477,-3.6477,0,-3.6248,-3.6259,-3.6287,-3.6315,-3.6339,-3.6326,-3.6347,-3.6368,-3.64,-3.6416,-3.644,-3.6476,-3.6505,-3.6513,-3.654,-3.656,-3.6556,-3.6568,-3.6567,-3.6569,-3.6496,-3.6486,-3.6572,-3.6572,-3.6572,-3.6571,-3.6571,-3.6571,-3.6296,-3.6341,-3.6343,-3.6395,-3.6406,-3.6442,-3.6455,-3.6472,-3.6486,-3.6528,-3.6552,-3.6557,-3.6571,-3.6599,-3.6625,-3.6626,-3.6638,-3.6653,-3.6652,-3.6584,-3.6574,-3.6565,-3.6556,-3.6655,-3.6655,-3.6724,-3.6724,-3.6725]}]]